Loading…
Loading…
Loading…
Loading…
Loading parcel record…
Hopewell Twp, NJ·Mercer County
Owner email, phone, and authorized agent are available on Pro.
Activity captured from the county clerk's daily feed. Includes deeds, mortgages, and other recorded filings.
| Date | Type | Grantor | Grantee | Book / Page | Instrument |
|---|---|---|---|---|---|
| 2026-03-05 | TAX SALE CERTIFICATE | — | — | 12029 / 859 | 2026009141 |
| 2025-03-05 | DEED | — | — | 6584 / 825 | 2025008696 |
| 2024-10-17 | MISC DEED |
| — |
| — |
| 6571 / 1427 |
| 2024035885 |
| 2024-09-12 | DEED | — | — | 6568 / 787 | 2024031932 |
| 2024-06-20 | DEED | — | — | 6559 / 1755 | 2024021496 |
| 2024-01-26 | TAX SALE CERTIFICATE | — | — | 11855 / 1716 | 2024002930 |
| 2023-01-17 | DEED | — | — | 6512 / 845 | 2023001819 |
| 2022-10-03 | MORTGAGE | — | — | 11769 / 778 | 2022045659 |
| 2022-10-03 | DEED | — | — | 6502 / 60 | 2022045658 |
| 2022-03-25 | DEED | — | — | 6479 / 701 | 2022015812 |
| 2022-02-01 | MORTGAGE | — | — | 11708 / 1843 | 2022006207 |
| 2021-12-13 | NOTICE OF SETTLEMENT | — | — | 1567 / 587 | 2021073323 |
| 2020-05-04 | MORTGAGE | — | — | 11485 / 1724 | 2020018831 |
| 2020-03-25 | NOTICE OF SETTLEMENT | — | — | 1527 / 1842 | 2020013632 |
| 2020-01-30 | MISC DEED | — | — | 6395 / 818 | 2020005131 |
| 2019-12-03 | NOTICE OF SETTLEMENT | — | — | 1523 / 651 | 2019051779 |
| 2019-11-14 | DISCHARGE OF MORTGAGE | — | — | 1585 / 1608 | 2019049427 |
| 2019-10-04 | MORTGAGE | — | — | 11438 / 1667 | 2019043488 |
| 2018-12-18 | MISC DEED | — | — | 6352 / 391 | 2018053445 |
| 2018-11-02 | MORTGAGE | — | — | 11375 / 1511 | 2018047369 |
| 2018-10-16 | NOTICE OF SETTLEMENT | — | — | 1506 / 1588 | 2018044586 |
| 2018-10-01 | MORTGAGE | — | — | 11369 / 398 | 2018041989 |
| 2018-10-01 | MORTGAGE | — | — | 11369 / 389 | 2018041988 |
| 2018-09-12 | DEED | — | — | 6340 / 1793 | 2018039309 |
| 2018-09-05 | MORTGAGE | — | — | 11364 / 941 | 2018038263 |
| 2018-06-25 | DEED | — | — | 6331 / 850 | 2018026612 |
| 2018-06-14 | MISC DEED | — | — | 6330 / 982 | 2018025305 |
| 2018-05-07 | DEED | — | — | 6325 / 966 | 2018018657 |
| 2017-08-07 | DEED | — | — | 6295 / 700 | 2017036174 |
| 2017-04-10 | DEED | — | — | 6281 / 934 | 2017016692 |